Date String (YYYY-MM-DD hh:mm:ss) UTC,Instrument flags,Ambient pressure (hPa),Sample flow (lpm),Bypass flow (lpm),Sample temperature (°C),Ambient temperature (°C),ASC tube jacket temperature (°C),LED temperature (°C),Box temperature (°C),Sample RH (%),Span deviation,Mass concentration (μg/m³),Mass concentration (μg/m³),Mass concentration (μg/m³)
DateTimeUTC,F1_M11,P_M11,Q1_M11,Q2_M11,T1_M11,T2_M11,T3_M11,T4_M11,T5_M11,U1_M11,ZSPAN_M11,X0_M11,X2_M11,X1_M11
2021-08-25 19:00:00,,0832.6,5.00,0.00,29.7,27.1,00.0,38.8,31.1,33.2,0002.2,0031.65,0016.41,0014.70
2021-08-25 19:01:00,,0832.6,5.01,0.00,29.7,27.5,00.0,38.7,31.2,33.8,0002.2,0031.37,0016.36,0014.69
2021-08-25 19:02:00,,0832.6,5.00,0.00,29.7,27.8,00.0,38.7,31.3,33.3,0002.2,0030.75,0016.41,0014.71
2021-08-25 19:03:00,,0832.6,4.99,0.00,29.8,28.1,00.0,38.7,31.4,33.0,0002.2,0030.43,0016.39,0014.72
2021-08-25 19:04:00,,0832.5,5.00,0.00,29.8,28.3,00.0,38.7,31.4,33.0,0002.3,0028.33,0016.33,0014.70
2021-08-25 19:05:00,,0832.5,5.01,0.00,29.8,28.5,00.0,38.7,31.5,33.1,0002.2,0029.23,0016.29,0014.68
2021-08-25 19:06:00,,0832.5,5.00,0.00,29.9,28.4,00.0,38.8,31.5,33.0,0002.1,0029.76,0016.32,0014.67
2021-08-25 19:07:00,,0832.5,5.00,0.00,29.8,27.0,00.0,38.7,31.1,34.0,0002.0,0030.67,0016.32,0014.67
2021-08-25 19:08:00,,0832.5,5.01,0.00,29.6,26.0,00.0,38.7,30.7,34.2,0002.1,0029.88,0016.34,0014.69
2021-08-25 19:09:00,,0832.4,5.01,0.00,29.6,26.0,00.0,38.7,30.7,34.0,0002.1,0029.62,0016.35,0014.72
2021-08-25 19:10:00,,0832.4,5.00,0.00,29.5,26.5,00.0,38.7,30.9,34.2,0002.1,0029.83,0016.31,0014.73
2021-08-25 19:11:00,,0832.4,4.99,0.00,29.5,26.9,00.0,38.6,31.0,34.3,0002.2,0030.42,0016.24,0014.72
2021-08-25 19:12:00,,0832.4,5.01,0.00,29.5,27.4,00.0,38.6,31.1,34.1,0002.2,0030.30,0016.18,0014.71
2021-08-25 19:13:00,,0832.3,4.99,0.00,29.5,27.7,00.0,38.6,31.2,34.0,0002.2,0030.32,0016.07,0014.70
2021-08-25 19:14:00,,0832.4,4.99,0.00,29.6,28.0,00.0,38.6,31.3,33.7,0002.2,0030.16,0016.07,0014.71
2021-08-25 19:15:00,,0832.4,5.00,0.00,29.6,28.2,00.0,38.6,31.3,34.1,0002.0,0030.85,0016.11,0014.72
2021-08-25 19:16:00,,0832.3,5.00,0.00,29.7,28.5,00.0,38.6,31.4,33.6,0002.1,0030.35,0016.11,0014.71
2021-08-25 19:17:00,,0832.4,5.00,0.00,29.7,28.6,00.0,38.6,31.5,33.9,0002.2,0030.41,0016.14,0014.69
2021-08-25 19:18:00,,0832.4,5.01,0.00,29.7,28.1,00.0,38.7,31.3,34.1,0002.1,0030.13,0016.12,0014.67
2021-08-25 19:19:00,,0832.3,5.02,0.00,29.6,26.5,00.0,38.6,30.9,33.9,0002.1,0029.65,0016.05,0014.65
2021-08-25 19:20:00,,0832.3,4.99,0.00,29.5,25.8,00.0,38.6,30.6,33.7,0002.0,0030.02,0016.01,0014.64
2021-08-25 19:21:00,,0832.3,5.01,0.00,29.4,26.0,00.0,38.6,30.7,33.9,0001.9,0030.13,0016.06,0014.61
2021-08-25 19:22:00,,0832.3,4.99,0.00,29.3,26.5,00.0,38.5,30.8,34.1,0001.7,0029.96,0016.12,0014.63
2021-08-25 19:23:00,,0832.3,4.99,0.00,29.3,27.0,00.0,38.5,30.9,34.5,0001.6,0030.69,0016.15,0014.60
2021-08-25 19:24:00,,0832.3,5.01,0.00,29.3,27.4,00.0,38.5,31.0,34.5,0001.3,0030.54,0016.19,0014.58
2021-08-25 19:25:00,,0832.4,4.98,0.00,29.4,27.7,00.0,38.5,31.1,34.6,0001.2,0031.09,0016.20,0014.56
2021-08-25 19:26:00,,0832.3,5.01,0.00,29.5,28.1,00.0,38.5,31.2,34.7,0001.3,0031.10,0016.19,0014.55
2021-08-25 19:27:00,,0832.3,4.99,0.00,29.6,28.3,00.0,38.5,31.4,34.0,0001.4,0030.60,0016.17,0014.54
2021-08-25 19:28:00,,0832.4,5.01,0.00,29.7,28.5,00.0,38.5,31.5,34.2,0001.3,0029.70,0016.05,0014.50
2021-08-25 19:29:00,,0832.3,4.99,0.00,29.8,28.7,00.0,38.5,31.5,34.5,0001.3,0029.06,0016.05,0014.49
2021-08-25 19:30:00,,0832.3,5.00,0.00,29.9,28.5,00.0,38.6,31.5,34.1,0001.2,0029.37,0016.12,0014.49
2021-08-25 19:31:00,,0832.3,5.00,0.00,29.8,26.9,00.0,38.6,31.0,34.2,0001.2,0029.62,0016.12,0014.45
2021-08-25 19:32:00,,0832.3,5.00,0.00,29.6,25.9,00.0,38.6,30.7,34.2,0001.4,0028.42,0016.04,0014.43
2021-08-25 19:33:00,,0832.3,5.01,0.00,29.5,26.0,00.0,38.6,30.7,34.2,0001.4,0028.11,0016.00,0014.41
2021-08-25 19:34:00,,0832.3,5.00,0.00,29.5,26.4,00.0,38.5,30.9,34.2,0001.5,0027.47,0015.98,0014.39
2021-08-25 19:35:00,,0832.3,4.99,0.00,29.5,26.9,00.0,38.5,31.0,34.3,0001.5,0027.60,0015.96,0014.35
2021-08-25 19:36:00,,0832.2,5.00,0.00,29.5,27.3,00.0,38.5,31.1,34.5,0001.5,0027.39,0015.89,0014.29
2021-08-25 19:37:00,,0832.3,5.00,0.00,29.6,27.7,00.0,38.5,31.2,34.0,0001.5,0026.64,0015.88,0014.28
2021-08-25 19:38:00,,0832.3,5.00,0.00,29.7,28.0,00.0,38.5,31.3,34.4,0001.5,0026.72,0015.89,0014.26
2021-08-25 19:39:00,,0832.3,5.01,0.00,29.8,28.3,00.0,38.6,31.4,34.8,0001.6,0028.74,0016.03,0014.26
2021-08-25 19:40:00,,0832.2,4.99,0.00,29.9,28.5,00.0,38.6,31.5,34.1,0001.5,0030.12,0016.02,0014.23
2021-08-25 19:41:00,,0832.3,5.01,0.00,29.9,28.5,00.0,38.6,31.5,33.6,0001.5,0031.75,0015.99,0014.18
2021-08-25 19:42:00,,0832.3,5.01,0.00,29.9,27.3,00.0,38.6,31.1,33.8,0001.5,0030.84,0015.98,0014.17
2021-08-25 19:43:00,,0832.2,5.01,0.00,29.7,26.0,00.0,38.6,30.7,33.9,0001.4,0031.10,0015.98,0014.16
2021-08-25 19:44:00,,0832.2,4.98,0.00,29.6,25.9,00.0,38.6,30.7,34.7,0001.5,0031.46,0015.96,0014.13
2021-08-25 19:45:00,,0832.2,5.02,0.00,29.6,26.3,00.0,38.6,30.9,33.9,0001.5,0031.22,0015.90,0014.07
2021-08-25 19:46:00,,0832.2,4.99,0.00,29.6,26.7,00.0,38.6,31.0,33.7,0001.6,0031.39,0015.91,0014.08
2021-08-25 19:47:00,,0832.3,5.00,0.00,29.6,27.2,00.0,38.6,31.1,33.8,0001.7,0031.86,0015.90,0014.08
2021-08-25 19:48:00,,0832.3,4.99,0.00,29.7,27.6,00.0,38.6,31.2,33.3,0001.7,0032.81,0015.84,0014.03
2021-08-25 19:49:00,,0832.2,5.00,0.00,29.7,27.9,00.0,38.6,31.3,33.6,0001.6,0033.93,0015.81,0014.00
2021-08-25 19:50:00,,0832.2,5.00,0.00,29.8,28.2,00.0,38.6,31.3,33.6,0001.6,0032.37,0015.68,0013.97
2021-08-25 19:51:00,,0832.2,5.02,0.00,29.8,28.4,00.0,38.6,31.4,33.4,0001.7,0031.54,0015.63,0013.95
2021-08-25 19:52:00,,0832.2,5.00,0.00,29.8,28.6,00.0,38.7,31.5,32.9,0001.7,0030.11,0015.64,0013.95
2021-08-25 19:53:00,,0832.2,5.00,0.00,29.9,28.3,00.0,38.7,31.4,33.2,0002.0,0030.41,0015.61,0013.93
2021-08-25 19:54:00,,0832.2,4.99,0.00,29.8,26.8,00.0,38.7,31.0,33.9,0002.1,0031.05,0015.66,0013.93
2021-08-25 19:55:00,,0832.1,5.00,0.00,29.6,25.8,00.0,38.7,30.7,34.0,0002.2,0030.74,0015.69,0013.97
2021-08-25 19:56:00,,0832.1,5.01,0.00,29.5,25.9,00.0,38.6,30.7,34.3,0002.4,0032.29,0015.75,0014.02
2021-08-25 19:57:00,,0832.1,4.99,0.00,29.5,26.4,00.0,38.6,30.9,34.9,0002.4,0032.67,0015.76,0014.02
2021-08-25 19:58:00,,0832.1,4.99,0.00,29.6,26.9,00.0,38.6,31.0,34.8,0002.5,0032.19,0015.78,0014.06
2021-08-25 19:59:00,,0832.1,5.01,0.00,29.7,27.3,00.0,38.5,31.2,34.4,0002.6,0031.35,0015.82,0014.08
